Location: Unspecified
(33.6682°S, 0.0000°E)
Time: 13:45:59
(UTC+00:00)

Transit 2A Rocket - All Passes

Search period start: 20 June 2019 00:00
Search period end: 30 June 2019 00:00
Orbit: 586 x 917 km, 66.7° (Epoch: 20 June)

Date Brightness Start Highest point End Pass type
(mag) Time Alt. Az. Time Alt. Az. Time Alt. Az.
20 Jun - 06:28:32 10° SSE 06:31:32 15° SE 06:34:38 10° E visible
20 Jun - 08:09:09 10° SSW 08:14:30 73° WNW 08:20:17 10° NNE daylight
20 Jun - 21:00:27 10° NE 21:03:03 16° ENE 21:05:41 10° ESE night (unlit)
20 Jun - 22:41:17 10° NW 22:45:12 34° WSW 22:49:15 10° S night (unlit)
21 Jun - 07:26:42 10° SSW 07:32:00 64° ESE 07:37:44 10° NE daylight
21 Jun - 09:11:07 10° WSW 09:14:10 15° WNW 09:17:19 10° NW daylight
21 Jun - 21:58:23 10° NNW 22:02:39 72° WSW 22:07:02 10° SSE night (unlit)
22 Jun - 06:44:31 10° S 06:49:26 36° ESE 06:54:40 10° NE daylight
22 Jun - 08:27:18 10° SW 08:31:52 28° WNW 08:36:42 10° NNW daylight
22 Jun - 21:16:03 10° N 21:20:12 53° ENE 21:24:28 10° SE night (unlit)
22 Jun - 23:01:12 10° WSW 23:03:06 13° SW 23:05:02 10° SSW night (unlit)
23 Jun - 06:02:42 10° S 06:06:44 21° SE 06:10:59 10° ENE visible
23 Jun - 07:44:16 10° SW 07:49:29 50° WNW 07:55:05 10° N daylight
23 Jun - 20:34:20 10° NNE 20:37:52 25° ENE 20:41:27 10° SE night (unlit)
23 Jun - 22:16:52 10° WNW 22:20:18 23° SW 22:23:50 10° S night (unlit)
24 Jun - 05:21:38 10° SSE 05:23:54 13° SE 05:26:15 10° ESE visible
24 Jun - 07:01:37 10° SSW 07:07:01 89° WNW 07:12:53 10° NNE daylight
24 Jun - 19:53:53 10° NE 19:55:38 12° ENE 19:57:23 10° E night (unlit)
24 Jun - 21:33:33 10° NW 21:37:38 44° WSW 21:41:52 10° SSE night (unlit)
25 Jun - 06:19:15 10° SSW 06:24:30 52° ESE 06:30:09 10° NE visible
25 Jun - 08:02:59 10° WSW 08:06:46 19° WNW 08:10:41 10° NNW daylight
25 Jun - 20:50:51 10° NNW 20:55:07 88° ENE 20:59:32 10° SSE night (unlit)
26 Jun - 05:37:10 10° S 05:41:53 30° ESE 05:46:54 10° ENE visible
26 Jun - 07:19:32 10° SW 07:24:25 34° WNW 07:29:38 10° N daylight
26 Jun - 20:08:42 10° N 20:12:43 41° ENE 20:16:50 10° SE night (unlit)
26 Jun - 21:52:51 10° W 21:55:28 16° SW 21:58:08 10° SSW night (unlit)
27 Jun - 04:55:30 10° S 04:59:08 18° SE 05:02:57 10° E visible
27 Jun - 06:36:39 10° SW 06:42:01 61° WNW 06:47:48 10° NNE visible
27 Jun - 19:27:18 10° NNE 19:30:25 20° ENE 19:33:36 10° ESE night (unlit)
27 Jun - 21:08:59 10° WNW 21:12:42 28° WSW 21:16:33 10° S night (unlit)
28 Jun - 04:15:16 10° SE 04:16:15 10° SE 04:17:15 10° ESE visible
28 Jun - 05:54:06 10° SSW 05:59:32 77° ESE 06:05:24 10° NNE visible
28 Jun - 07:39:24 10° W 07:41:37 12° WNW 07:43:53 10° NW daylight
28 Jun - 20:25:53 10° NW 20:30:05 56° WSW 20:34:27 10° SSE night (unlit)
29 Jun - 05:11:49 10° SSW 05:16:59 43° ESE 05:22:30 10° NE visible
29 Jun - 06:55:02 10° WSW 06:59:21 23° WNW 07:03:51 10° NNW daylight
29 Jun - 19:43:22 10° NNW 19:47:36 69° ENE 19:52:00 10° SSE visible
29 Jun - 21:29:54 10° WSW 21:30:41 10° SW 21:31:28 10° SW night (unlit)
